Weather History for Terrell, TX

Change the Weather History Date:

Wednesday, October 10, 2012

  Actual Average (KDFW) Record (KDFW)
Temperature  
Mean Temperature 66 °F 69 °F  
Max Temperature 72 °F 80 °F 95 °F (1975)
Min Temperature 60 °F 59 °F 39 °F (2000)
Degree Days  
Heating Degree Days 0 1  
Month to date heating degree days 10  
Since 1 July heating degree days 16  
Cooling Degree Days 0 6  
Month to date cooling degree days 68  
Year to date cooling degree days 2645  
Growing Degree Days 16 (Base 50)    
Moisture  
Dew Point 62 °F    
Average Humidity 87    
Maximum Humidity 100    
Minimum Humidity 73    
Precipitation  
Precipitation 0.00 in 0.12 in 1.64 in (1919)
Month to date precipitation 1.09  
Year to date precipitation 27.75  
Snow  
Snow 0.00 in 0.00 in 0.00 in ()
Month to date snowfall 0.0  
Since 1 July snowfall 0.0  
Since 1 September snowfall 0.0  
Snow Depth -    
Sea Level Pressure  
Sea Level Pressure 30.07 in    
Wind  
Wind Speed 4 mph (ENE)    
Max Wind Speed 13 mph    
Max Gust Speed -    
Visibility 6 miles    
Events      
T = Trace of Precipitation, MM = Missing Value Source: NWS Daily Summary

Daily Weather History Graph

Daily Weather History Graph

Search for Another Location

Airport:

Trip Planner

Search our weather history database for the weather conditions in past years. The results will help you decide how hot, cold, wet, or windy it might be!

Date:

Astronomy

Oct. 10, 2012 Rise Set
Actual Time 7:25 AM CDT 6:57 PM CDT
Civil Twilight 7:01 AM CDT 7:22 PM CDT
Nautical Twilight 6:32 AM CDT 7:50 PM CDT
Astronomical Twilight 6:03 AM CDT 8:19 PM CDT
Moon 2:19 AM CDT (10/10) 3:46 PM CDT (10/10)
Length of Visible Light 12h 21m
Length of Day
11h 31m
Waning Crescent, 27% of the Moon is Illuminated
Oct 10
Waning Crescent
Oct 15
New
Oct 21
First Quarter
Oct 29
Full
Nov 6
Last Quarter

Hourly Weather History & Observations

Time (CDT) Temp. Dew Point Humidity Pressure Visibility Wind Dir Wind Speed Gust Speed Precip Events Conditions
12:53 AM 64.0 °F 62.1 °F 93% 29.98 in 6.0 mi Calm Calm - N/A   Clear
1:53 AM 62.1 °F 60.1 °F 93% 29.99 in 4.0 mi NE 4.6 mph - N/A   Clear
2:53 AM 62.1 °F 60.1 °F 93% 30.00 in 4.0 mi Calm Calm - N/A   Clear
3:11 AM 60.8 °F 60.8 °F 100% 30.01 in 2.5 mi Calm Calm - N/A   Clear
3:20 AM 60.8 °F 59.0 °F 94% 30.01 in 4.0 mi Calm Calm - N/A   Clear
3:53 AM 62.1 °F 61.0 °F 96% 30.00 in 3.0 mi Calm Calm - N/A   Clear
4:04 AM 62.6 °F 60.8 °F 94% 30.02 in 2.5 mi Calm Calm - N/A   Clear
4:14 AM 62.6 °F 60.8 °F 94% 30.02 in 1.8 mi NE 3.5 mph - N/A   Clear
4:23 AM 62.6 °F 60.8 °F 94% 30.02 in 2.0 mi NE 3.5 mph - N/A   Mostly Cloudy
4:45 AM 62.6 °F 60.8 °F 94% 30.03 in 3.0 mi NE 4.6 mph - N/A   Overcast
4:53 AM 63.0 °F 61.0 °F 93% 30.02 in 3.0 mi NE 4.6 mph - N/A   Overcast
5:04 AM 64.4 °F 62.6 °F 94% 30.03 in 3.0 mi ENE 3.5 mph - N/A   Overcast
5:53 AM 64.9 °F 64.0 °F 97% 30.04 in 5.0 mi Calm Calm - N/A   Overcast
6:53 AM 66.9 °F 64.9 °F 93% 30.06 in 6.0 mi Calm Calm - N/A   Overcast
7:53 AM 66.9 °F 64.9 °F 93% 30.09 in 4.0 mi Calm Calm - N/A   Overcast
8:53 AM 69.1 °F 66.9 °F 93% 30.11 in 6.0 mi Calm Calm - N/A   Overcast
9:53 AM 70.0 °F 66.9 °F 90% 30.13 in 7.0 mi Calm Calm - N/A   Overcast
10:53 AM 71.1 °F 66.9 °F 87% 30.14 in 7.0 mi NE 4.6 mph - N/A   Overcast
11:53 AM 68.0 °F 64.9 °F 90% 30.14 in 5.0 mi NNE 12.7 mph - N/A   Overcast
12:53 PM 68.0 °F 64.0 °F 87% 30.14 in 5.0 mi NNE 11.5 mph - N/A   Overcast
1:53 PM 69.1 °F 64.9 °F 87% 30.12 in 5.0 mi NE 10.4 mph - N/A   Overcast
2:53 PM 69.1 °F 64.0 °F 84% 30.10 in 5.0 mi NE 9.2 mph - N/A   Haze
3:10 PM 69.8 °F 62.6 °F 78% 30.11 in 5.0 mi NE 10.4 mph - N/A   Haze
3:53 PM 70.0 °F 63.0 °F 78% 30.09 in 6.0 mi ENE 11.5 mph - N/A   Haze
4:04 PM 69.8 °F 62.6 °F 78% 30.09 in 7.0 mi ENE 11.5 mph - N/A   Overcast
4:53 PM 70.0 °F 62.1 °F 76% 30.08 in 8.0 mi NE 8.1 mph - N/A   Overcast
5:53 PM 69.1 °F 61.0 °F 75% 30.07 in 9.0 mi NE 10.4 mph - N/A   Overcast
6:22 PM 69.8 °F 60.8 °F 73% 30.09 in 10.0 mi ENE 10.4 mph - N/A   Overcast
6:53 PM 68.0 °F 60.1 °F 76% 30.09 in 10.0 mi East 8.1 mph - N/A   Mostly Cloudy
7:53 PM 66.9 °F 60.1 °F 79% 30.10 in 10.0 mi ENE 5.8 mph - N/A   Overcast
8:03 PM 66.2 °F 60.8 °F 83% 30.11 in 10.0 mi ENE 5.8 mph - N/A   Overcast
8:19 PM 66.2 °F 60.8 °F 83% 30.11 in 10.0 mi ENE 5.8 mph - N/A   Overcast
8:53 PM 66.9 °F 60.1 °F 79% 30.11 in 10.0 mi East 5.8 mph - N/A   Overcast
9:53 PM 66.9 °F 60.1 °F 79% 30.11 in 10.0 mi East 5.8 mph - N/A   Scattered Clouds
10:53 PM 66.9 °F 60.1 °F 79% 30.11 in 10.0 mi East 5.8 mph - N/A   Partly Cloudy
11:53 PM 66.0 °F 61.0 °F 84% 30.10 in 10.0 mi East 3.5 mph - N/A   Clear